Погода в Котбусе

Германия     51°45′25″N   14°19′59″E
темп.,
°C
ветер,
м/с
пор.,
м/с
влажн.,
%
обл.,
%
осадки,
мм/ч
давл.,
гПа
погр.,
м
1 марта, пн
пн101:00+3ссз238689 0.0 1036379
04:00+3с1288100 0.0 1035240
07:00+3з0089100 0.0 1036195
10:00+4зюз1182100 0.0 1036372
13:00+7з016881 0.0 1036490
16:00+8ссв10660 0.0 1035388
19:00+5вюв12810 0.0 103522
22:00+4юв11840 0.0 103522
2 марта, вт
вт201:00+4ююв11850 0.0 103622
04:00+3ююв11860 0.0 103422
07:00+2ююз12860 0.0 103522
10:00+8ююз11690 0.0 1034248
13:00+12юв11550 0.0 1034442
16:00+12всв12570 0.0 1032388
19:00+8в22710 0.0 103322
22:00+6вюв22770 0.0 103322
3 марта, ср
ср301:00+5юв22810 0.0 103322
04:00+4ю22780 0.0 103122
07:00+3ююз23790 0.0 103126
10:00+8юз35630 0.0 1030320
13:00+12юз35510 0.0 1028655
16:00+12юз35560 0.0 1025742
19:00+7юз34720 0.0 102444
22:00+7зюз368058 0.0 102295
4 марта, чт
чт401:00+6зюз498676 0.0 1021188
04:00+5зюз499157 0.0 1019182
07:00+5зюз489455 0.0 1018210
10:00+8з577999 0.0 1017574
13:00+11з576299 0.0 1015943
16:00+8з3675100 0.0 1013408
19:00+7з2683100 0.1 1012307
22:00+6з2489100 0.4 1011226
5 марта, пт
пт501:00+5с3593100 2.6 1011356
04:00+3с5796100 0.8 1012455
07:00+1с6993100 1.1 1014501
10:00+1ссв6985100 0.2 1017769
13:00+4ссв684697 0.3 10201719
16:00+4ссв57440 0.0 10212137
19:000с4106011 0.0 1023305
22:00−1с35630 0.0 1026142